DECAYED
Showing default

FLOCK 4Y 20, 55063 (Decayed)

Orbit data source: Space-Track

FLOCK 4Y 20, 55063 was a payload satellite owned by Planet (US) in LEO that was launched on Tue, 03 Jan 2023 UTC via an FALCON 9 launch vehicle from the Air Force Eastern Test Range (AFETR). Payload-class satellites include a variety of spacecraft equipped with specific instruments for various scientific and technological missions. These include communications satellites like Starlink; space stations such as the ISS; scientific satellites like the Hubble; Earth observation satellites from companies like Planet Labs, Umbra, and HawkEye 360; GPS; miniature CubeSats for education and research; and military/defense satellites.

Not visible in the next 10 days
Identifier
55063, 2023-001BG
Orbit
Decayed
Country
Flag of USUS
Related business
Manufacturer
Planet
Mission
Decayed Commercial Imaging
Bus & Motor
CUBESAT 3U, Unknown motor
Mass
5.7 kg wet, 5.7 kg dry
Launch date (UTC)
2023-01-03 (3 years ago)
Launch vehicle
FALCON 9
Launch site
Air Force Eastern Test Range (AFETR)
Object type
Payload
Rocket body
Debris
Shape & HBR
Box + 2 Pan, 1.0 m
Radar Cross Section
0.108 m², Small (<0.1 m²)

Expand to show TLE details & history
Last TLE update: 5 months ago

TLE from 5 months ago
0 FLOCK 4Y 20
1 55063U 23001BG  25255.65819448  .04540741  24205-5  17922-2 0  9995
2 55063  97.3415 333.8189 0013275 273.7049  86.2723 16.23560219150756
Epoch: 2025-09-12T15:47Z
TLE epoch observation values (Epoch: 2025-09-12T15:47:48.003Z)
Latitude
-0.00007°
Longitude
104.96615°
Altitude
212.577 km
Speed
7.779 km/s
True Right ascension
22h 15m 16s
True Declination
0° 00' 00"
Sunlit
Object was in full shadow at epoch
Visualization orbit readout
Latitude
Unknown
Longitude
Unknown
Altitude
Unknown
Speed
Unknown
Apparent Right ascension
Unknown
Apparent Declination
Unknown
Sunlit
N/A
Visualization observer readout
Local Sidereal Time
17:17:31
Azimuth
Unknown
Elevation
Unknown
Doppler factor
Unknown
Orbital elements
Apogee altitude
215.471 km
Perigee altitude
197.988 km
Semi-major axis
6,584.867 km
Eccentricity
0.00133
Inclination
97.3415°
RAAN
333.8189°
Arg. of periapsis
273.7049°
True anomaly
86.42411°
Mean anomaly
86.2723°
Eccentric anomaly
86.34821°
Mean motion
4.06184 °/min
Orbital period
88.63 mins
BSTAR
0.0017922
Loading maneuver chart data...
Computing Atmospheric mass density...

Documentation

Showing up to 5 results
|